Home   Weather   Mali Kosharyshcha   Past weeks
Flag for Ukraine

Past Weather in Mali Kosharyshcha, Ukraine — Yesterday and Last 2 Weeks

Now
79 °F

Passing clouds.


Feels Like: 81 °F
Forecast: 81 / 65 °F
Wind: 8 mph from Northeast

Location: Kyiv

Current Time: Jun 24, 2019 at 12:06:24 pm

Latest Report: Jun 24, 2019 at 11:30 am


Visibility: N/A

Pressure: 30.12 "Hg

Humidity: 61%

Dew Point: 64 °F

Location of Mali KosharyshchaLocation

Past Weather in Mali Kosharyshcha — Graph

°F

Mali Kosharyshcha Temperature Yesterday

Maximum temperature yesterday: 90 °F (at 4:00 pm)
Minimum temperature yesterday: 68 °F (at 4:30 am)
Average temperature yesterday: 78 °F

High & Low Weather Summary for the Past Weeks

 TemperatureHumidityPressure
High93 °F (Jun 22, 2:00 pm)100% (Jun 10, 12:30 am)30.18 "Hg (Jun 10, 12:30 am)
Low61 °F (Jun 10, 1:30 am)17% (Jun 15, 2:30 pm)29.92 "Hg (Jun 16, 7:00 pm)
Average77 °F58%30.04 "Hg
* Reported Jun 9 10:00 am — Jun 24 10:30 am, Mali Kosharyshcha. Weather by CustomWeather, © 2019

Note: Actual official high and low records may vary slightly from our data, if they occured in-between our weather recording intervals... More about our weather records

Advertising

Mali Kosharyshcha Weather History for the Previous 24 Hours

Scroll right to see more
 ConditionsComfort  
Time TempWeatherWind HumidityBarometerVisibility
10:30 am
Mon, Jun 24
77 °FPassing clouds.8 mph65%30.12 "HgN/A
10:00 am77 °FPassing clouds.8 mph61%30.09 "HgN/A
9:30 am73 °FPassing clouds.8 mph69%30.09 "HgN/A
9:00 am70 °FSunny.6 mph78%30.09 "Hg10 mi
8:30 am70 °FPassing clouds.8 mph78%30.09 "HgN/A
8:00 am68 °FPassing clouds.6 mph83%30.09 "HgN/A
7:30 am68 °FSunny.10 mph83%30.09 "Hg10 mi
7:00 am68 °FSunny.8 mph83%30.09 "Hg10 mi
6:30 am68 °FPassing clouds.8 mph83%30.09 "HgN/A
6:00 am66 °FSunny.8 mph88%30.09 "Hg10 mi
5:30 am66 °FPassing clouds.6 mph83%30.09 "HgN/A
5:00 am66 °FPassing clouds.8 mph83%30.07 "HgN/A
4:30 am68 °FClear.8 mph78%30.07 "Hg10 mi
4:00 am68 °FClear.6 mph78%30.07 "Hg10 mi
3:30 am68 °FPassing clouds.8 mph78%30.07 "HgN/A
3:00 am70 °FClear.8 mph73%30.07 "Hg10 mi
2:30 am70 °FClear.8 mph73%30.07 "Hg10 mi
2:00 am72 °FClear.8 mph73%30.04 "Hg10 mi
1:30 am72 °FClear.10 mph73%30.04 "Hg10 mi
1:00 am72 °FClear.8 mph73%30.04 "Hg10 mi
12:30 am73 °FClear.8 mph69%30.04 "Hg10 mi
12:00 am73 °FClear.10 mph69%30.04 "Hg10 mi
11:30 pm
Sun, Jun 23
73 °FClear.10 mph69%30.04 "Hg10 mi
11:00 pm75 °FPassing clouds.8 mph65%30.07 "HgN/A
10:30 pm75 °FPassing clouds.13 mph65%30.07 "HgN/A
10:00 pm77 °FClear.13 mph61%30.04 "Hg10 mi
9:30 pm77 °FClear.10 mph61%30.04 "Hg10 mi
9:00 pm75 °FSunny.8 mph65%30.04 "Hg10 mi
8:30 pm75 °FPassing clouds.8 mph54%30.04 "HgN/A
8:00 pm77 °FScattered clouds.6 mph54%30.01 "HgN/A
7:30 pm82 °FScattered clouds.6 mph55%30.01 "HgN/A
7:00 pm82 °FScattered clouds.13 mph51%30.01 "HgN/A
6:30 pm84 °FThundershowers. Scattered clouds.15 mph48%30.01 "HgN/A
6:00 pm86 °FThunderstorms. Scattered clouds.15 mph49%29.98 "HgN/A
5:30 pm90 °FPassing clouds.10 mph41%29.98 "HgN/A
5:00 pm90 °FPassing clouds.10 mph43%29.98 "HgN/A
4:30 pm90 °FThundershowers. Passing clouds.6 mph43%29.98 "HgN/A
4:00 pm90 °FPassing clouds.8 mph43%29.98 "HgN/A
3:30 pm88 °FPassing clouds.8 mph46%30.01 "HgN/A
3:00 pm88 °FPassing clouds.8 mph46%30.01 "HgN/A
2:30 pm88 °FSunny.8 mph46%30.01 "Hg10 mi
2:00 pm88 °FPassing clouds.10 mph46%30.01 "HgN/A
1:30 pm88 °FPassing clouds.8 mph49%30.01 "HgN/A
1:00 pm84 °FPassing clouds.8 mph51%30.01 "HgN/A
12:30 pm82 °FPassing clouds.6 mph58%30.01 "HgN/A
12:00 pm81 °FPassing clouds.8 mph58%30.04 "HgN/A
Weather by CustomWeather, © 2019

See weather overview